Voltar ao catálogo

FENGYUN 1C DEB

AtivoPO
NORAD 30167·DEBRIS·🇨🇳 China

Lançado May 10, 1999 de Taiyuan Satellite Launch Center

Loading…

Próximas Passagens (próximas 24 horas)

TLE

AtualizadoSource: Space-Track

Época: Sep 14, 2026, 06:30 UTC

1 30167U 99025TY  26257.27090444  .00000860  00000-0  21069-3 0  9999
2 30167  98.9678   4.5208 0142405  48.9417 334.2050 14.49389767 33487

Acompanhe FENGYUN 1C DEB em tempo real com AllMySat

Download on the App Store